FREGAT DEB

基本信息
目录编号:
45888
目录名称:
FREGAT DEB
国际标识:
2011-037DH
轨道中心:
EARTH
物体状态:
在轨
发射日期:
2011-07-18 UTC
轨道信息
数据来源: 国际轨道数据
星历时间: 2026-09-05T14:10:30+0800
半长轴: 8299.538km
偏心率: 0.1801084
轨道倾角: 51.457°
近地点辐角: 143.837°
升交点赤经: 280.712°
平近点角: 229.894°
近地点: 426.584km
远地点: 3416.218km
周期: 125.412分钟
每日圈数: 11.482116
详细信息
发射场:
TTMTR
轨道高度:
LEO
数据来源:
AOE Integration Group
参考系:
TEME
时间系统:
UTC
历元类型:
SGP4
2D轨道图
3D轨道图
轨道高度分析图
轨道倾角分析图
轨道综合分析图
查看轨道综合分析图